This demonstration page uses our WeatherBlox Daily Observations layout. Learn more.

Left ArrowRight Arrow

Hourly Observations for November 3, 2018

Temp ( °F °C ) Dew Point ( °F °C ) Humidity (%) Winds ( mph kmh ) Pressure ( in mb ) Visibility ( mi km ) Precip ( " mm )
12:33 am 00:33 Cloudy 34 1.1 30 -1.1 85 85 NW 25 41 30.03 1017 10 16 N/A
12:53 am 00:53 Cloudy 34 1.1 30 -1.1 85 85 NW 22 35 30.02 1017 10 16 N/A
1:23 am 01:23 Partly Cloudy 33 0.6 30 -1.1 89 89 NW 17 28 30.06 1018 10 16 N/A
1:38 am 01:38 Mostly Cloudy 34 1 30 -1 87 87 NW 13 20 30.09 1019 10 16 N/A
1:53 am 01:53 Cloudy 34 1.1 30 -1.1 85 85 WNW 16 26 30.05 1018 10 16 N/A
2:29 am 02:29 Partly Cloudy 33 0.6 30 -1.1 89 89 NW 20 31 30.12 1020 10 16 N/A
2:53 am 02:53 Cloudy 33 0.6 30 -1.1 89 89 NW 14 22 30.08 1019 10 16 N/A
3:53 am 03:53 Cloudy 34 1.1 30 -1.1 85 85 WNW 12 19 30.08 1019 10 16 N/A
4:53 am 04:53 Cloudy 33 0.6 30 -1.1 89 89 WNW 9 15 30.10 1019 10 16 N/A
5:42 am 05:42 Cloudy 32 undefined 30 -1.1 92 92 W 7 11 30.15 1021 10 16 N/A
5:53 am 05:53 Cloudy 31 -0.6 29 -1.7 92 92 W 7 11 30.12 1020 10 16 N/A
6:31 am 06:31 Mostly Clear 30 -1.1 28 -2.2 92 92 WSW 8 13 30.15 1021 10 16 N/A
6:53 am 06:53 Clear 29 -1.7 27 -2.8 92 92 SW 8 13 30.14 1021 10 16 N/A
7:26 am 07:26 Mostly Cloudy 28 -2 27 -3 93 93 W 7 11 30.21 1023 10 16 N/A
7:53 am 07:53 Mostly Cloudy 32 undefined 29 -1.7 88 88 W 8 13 30.14 1021 10 16 N/A
8:53 am 08:53 Cloudy 33 0.6 29 -1.7 85 85 WSW 8 13 30.17 1022 10 16 N/A
9:53 am 09:53 Cloudy 34 1.1 30 -1.1 85 85 N N/A 30.15 1021 10 16 N/A
10:53 am 10:53 Cloudy 35 1.7 29 -1.7 78 78 E 3 6 30.15 1021 10 16 N/A
11:01 am 11:01 Cloudy 36 2.2 29 -1.7 76 76 ESE 3 6 30.15 1021 10 16 N/A
11:53 am 11:53 Cloudy 38 3.3 31 -0.6 76 76 N N/A 30.13 1020 10 16 N/A
12:06 pm 12:06 Mostly Cloudy 37 3 32 undefined 81 81 N N/A 30.12 1020 10 16 N/A
12:53 pm 12:53 Mostly Sunny 42 5.6 33 0.6 71 71 E 3 6 30.09 1019 10 16 N/A
1:53 pm 13:53 Mostly Cloudy 42 5.6 34 1.1 73 73 NE 5 7 30.09 1019 10 16 N/A
2:53 pm 14:53 Cloudy 43 6.1 35 1.7 74 74 E 5 7 30.07 1018 10 16 N/A
3:53 pm 15:53 Mostly Cloudy 44 6.7 36 2.2 73 73 ESE 5 7 30.04 1017 10 16 N/A
4:53 pm 16:53 Sunny 42 5.6 36 2.2 79 79 ENE 7 11 30.04 1017 10 16 N/A
5:53 pm 17:53 Sunny 39 3.9 34 1.1 82 82 E 6 9 30.04 1017 10 16 N/A
6:53 pm 18:53 Clear 36 2.2 33 0.6 89 89 E 5 7 30.03 1017 10 16 N/A
7:53 pm 19:53 Clear 32 undefined 31 -0.6 96 96 E 6 9 30.01 1016 10 16 N/A
8:53 pm 20:53 Mostly Clear 31 -0.6 31 -0.6 100 100 SSE 3 6 30.00 1016 10 16 N/A
9:53 pm 21:53 Clear 38 3.3 34 1.1 86 86 SW 13 20 29.95 1014 10 16 N/A
10:53 pm 22:53 Clear 37 2.8 33 0.6 86 86 SW 12 19 29.94 1014 10 16 N/A
11:53 pm 23:53 Clear 40 4.4 34 1.1 79 79 SSW 13 20 29.92 1013 10 16 N/A

Powered by AerisWeather